Flight Track Log - Related Links

Times and Time Zones

All times are in EDT time to prevent confusion due to time zone crossing. See the EJM90 flight status page for this flight to view local times or setup timezone preferences in your user account.

Time Position Orientation Groundspeed Altitude Reporting Facility
EDT Latitude Longitude Course Direction KTS MPH feet Rate Location/Type
Sat 12:39:03 PM 28.5167 -81.4072 247° West 203 234 2,400  Level FlightAware ADS-B
Sat 12:40:39 PM 28.5526 -81.5198 290° West 271 312 7,900 3,525 Climbing FlightAware ADS-B
Sat 12:41:43 PM 28.6349 -81.5491 343° North 296 341 11,800 3,045 Climbing FlightAware ADS-B
Sat 12:42:51 PM 28.7397 -81.5572 343° North 332 382 14,600 2,813 Climbing Jacksonville Center
Sat 12:43:51 PM 28.8464 -81.5700 354° North 360 414 17,800 2,900 Climbing Jacksonville Center
Sat 12:44:51 PM 28.9531 -81.5875 352° North 379 436 20,400 2,450 Climbing Jacksonville Center
Sat 12:45:51 PM 29.0639 -81.6003 354° North 392 451 22,700 2,300 Climbing Jacksonville Center
Sat 12:46:51 PM 29.1808 -81.6178 353° North 403 464 25,000 2,150 Climbing Jacksonville Center
Sat 12:47:51 PM 29.3000 -81.6353 353° North 421 484 27,000 2,000 Climbing Jacksonville Center
Sat 12:48:51 PM 29.4192 -81.6528 353° North 426 490 29,000 1,550 Climbing Jacksonville Center
Sat 12:49:51 PM 29.5467 -81.6703 353° North 437 503 30,100 1,050 Climbing Jacksonville Center
Sat 12:50:51 PM 29.6783 -81.6878 353° North 459 528 31,100 1,000 Climbing Jacksonville Center
Sat 12:51:51 PM 29.8122 -81.7053 354° North 473 544 32,100 950 Climbing Jacksonville Center
Sat 12:52:51 PM 29.9417 -81.7253 352° North 473 544 33,000 450 Climbing Jacksonville Center
Sat 12:53:51 PM 30.0756 -81.7381 355° North 473 544 33,000 -50 Level Jacksonville Center
Sat 12:54:51 PM 30.2092 -81.7556 354° North 478 550 32,900 90 Descending Jacksonville Center
Sat 12:56:00 PM 30.3332 -81.7854 354° North  Level FlightAware Approximate
Sat 01:03:00 PM 31.0995 -81.8921 354° North  Level FlightAware Approximate
Sat 01:04:00 PM 31.2091 -81.9066 354° North  Level FlightAware Approximate
Sat 01:05:00 PM 31.3186 -81.9212 354° North  Level FlightAware Approximate
Sat 01:06:00 PM 31.4282 -81.9358 354° North  Level FlightAware Approximate
Sat 01:07:00 PM 31.5377 -81.9504 354° North  Level FlightAware Approximate
Sat 01:08:00 PM 31.6473 -81.9650 354° North  Level FlightAware Approximate
Sat 01:09:00 PM 31.7568 -81.9797 353° North  Level FlightAware Approximate
Sat 01:10:00 PM 31.8664 -81.9944 353° North  Level FlightAware Approximate
Sat 01:11:00 PM 31.9759 -82.0092 353° North  Level FlightAware Approximate
Sat 01:12:00 PM 32.0854 -82.0240 353° North  Level FlightAware Approximate
Sat 01:13:00 PM 32.1950 -82.0388 353° North  Level FlightAware Approximate
Sat 01:14:00 PM 32.3045 -82.0537 353° North  Level FlightAware Approximate
Sat 01:15:00 PM 32.4141 -82.0687 353° North  Level FlightAware Approximate
Sat 01:16:00 PM 32.5235 -82.0848 353° North  Level FlightAware Approximate
Sat 01:16:07 PM 32.9542 -82.2217 353° North 481 554 35,000  Level Atlanta Center
Sat 01:17:00 PM 32.6329 -82.1009 353° North  Level FlightAware Approximate
Sat 01:17:07 PM 33.0903 -82.2411 353° North 486 559 35,000  Level Atlanta Center
Sat 01:18:00 PM 32.7423 -82.1171 353° North  Level FlightAware Approximate
Sat 01:18:07 PM 33.2219 -82.2558 355° North 486 559 35,000  Level Atlanta Center
Sat 01:19:00 PM 32.8517 -82.1332 353° North  Level FlightAware Approximate
Sat 01:19:07 PM 33.3558 -82.2731 354° North 486 559 34,000  Level Atlanta Center
Sat 01:20:00 PM 32.9612 -82.1495 353° North  Level FlightAware Approximate
Sat 01:20:07 PM 33.4917 -82.2928 353° North 486 559 32,700  Level Atlanta Center
Sat 01:21:00 PM 33.0706 -82.1657 353° North  Level FlightAware Approximate
Sat 01:21:07 PM 33.6297 -82.3097 354° North 485 558 31,200  Level Atlanta Center
Sat 01:22:07 PM 33.7697 -82.3294 353° North 505 581 29,600 -1,400 Descending Atlanta Center
Sat 01:23:07 PM 33.8972 -82.3419 355° North 505 581 28,400 -1,400 Descending Atlanta Center
Sat 01:24:07 PM 34.0353 -82.3619 353° North 513 590 26,800 -1,850 Descending Atlanta Center
Sat 01:25:07 PM 34.1794 -82.3789 354° North 508 585 24,700 -2,250 Descending Atlanta Center
Sat 01:26:07 PM 34.3114 -82.3967 354° North 494 568 22,300 -2,250 Descending Atlanta Center
Sat 01:27:07 PM 34.4367 -82.4117 354° North 476 548 20,200 -2,650 Descending Atlanta Center
Sat 01:28:07 PM 34.5622 -82.4244 355° North 457 526 17,000 -3,400 Descending Atlanta Center
Sat 01:29:07 PM 34.6939 -82.4397 355° North 441 507 13,400 -2,550 Descending Atlanta Center
Sat 01:30:07 PM 34.7983 -82.4503 355° North 408 470 11,900 -1,150 Descending Atlanta Center
Sat 01:31:07 PM 34.8861 -82.4614 354° North 357 411 11,100 -800 Descending Atlanta Center
Sat 01:32:07 PM 34.9719 -82.4825 349° North 325 374 10,300 -800 Descending Atlanta Center
Sat 01:33:07 PM 35.0553 -82.4883 357° North 305 351 9,500 -750 Descending Atlanta Center
Sat 01:34:07 PM 35.1289 -82.5175 342° North 289 333 8,800 -750 Descending Atlanta Center
Sat 01:35:07 PM 35.2083 -82.5442 345° North 279 321 8,000 -750 Descending Atlanta Center
Sat 01:36:07 PM 35.2775 -82.5683 344° North 267 307 7,300 -650 Descending Atlanta Center
Sat 01:37:07 PM 35.3364 -82.5903 343° North 242 278 6,700 -600 Descending Atlanta Center
Sat 01:38:07 PM 35.3928 -82.6094 345° North 228 262 6,100 -600 Descending Atlanta Center
Sat 01:39:07 PM 35.4453 -82.6314 341° North 209 241 5,500 -900 Descending Atlanta Center
Sat 01:40:07 PM 35.4867 -82.6078 25° Northeast 185 213 4,300 -1,100 Descending Atlanta Center
Sat 01:41:07 PM 35.4947 -82.5719 75° East 179 206 3,300 -1,000 Descending Atlanta Center
Sat 01:43:00 PM 35.4333 -82.5333 North  Level FlightAware Approximate

Login

Don't have an account? Register now (free) for customized features, flight alerts, and more!